EXPRESS 80

Last updated on Thu Jul 03 2025 00:02:48 GMT+0000 (Coordinated Universal Time)

1 45986U 20053B 25182.99928022 -.00000130 00000+0 00000+0 0 9994 2 45986 0.0197 336.4679 0001496 229.1507 154.3739 1.00270749 18129
UTC large
Height (km)
Speed (km/s)
/
Latitude / Longitude
Inclination (degrees)
Orbital Period (minutes)
Azimuth
Elevation
Range (km)
Doppler Factor

Next 0 passes for location: London (51.5072 / 0.1276)

Sorry there are no passes over London.